This demonstration page uses our WeatherBlox Daily Observations layout. Learn more.

Left ArrowRight Arrow

31.84235, -102.49876

Hourly Observations for June 12, 2022

Temp ( °F °C ) Dew Point ( °F °C ) Humidity (%) Winds ( mph kmh ) Pressure ( in mb ) Visibility ( mi km ) Precip ( " mm )
12:53 am 00:53 Clear 89 31.7 50 10 26 26 S 18 30 29.70 1006 10 16 0.00 0.00
1:53 am 01:53 Clear 87 30.6 51 10.6 29 29 S 18 30 29.69 1005 10 16 0.00 0.00
2:53 am 02:53 Clear 85 29.4 51 10.6 31 31 S 15 24 29.69 1005 10 16 0.00 0.00
3:53 am 03:53 Clear 84 28.9 52 11.1 33 33 S 14 22 29.68 1005 10 16 0.00 0.00
4:53 am 04:53 Clear 83 28.3 53 11.7 36 36 S 16 26 29.68 1005 10 16 0.00 0.00
5:53 am 05:53 Clear 82 27.8 53 11.7 37 37 S 14 22 29.69 1005 10 16 0.00 0.00
6:53 am 06:53 Sunny 81 27.2 53 11.7 38 38 SSW 13 20 29.70 1006 10 16 0.00 0.00
7:53 am 07:53 Sunny 82 27.8 54 12.2 38 38 S 8 13 29.73 1007 10 16 0.00 0.00
8:53 am 08:53 Sunny 85 29.4 54 12.2 35 35 S 18 30 29.74 1007 10 16 0.00 0.00
9:53 am 09:53 Sunny 89 31.7 54 12.2 30 30 S 18 30 29.74 1007 10 16 0.00 0.00
10:53 am 10:53 Sunny 93 33.9 54 12.2 27 27 SSW 20 31 29.74 1007 10 16 0.00 0.00
11:53 am 11:53 Sunny 96 35.6 53 11.7 23 23 S 22 35 29.74 1007 10 16 0.00 0.00
12:53 pm 12:53 Sunny 100 37.8 48 8.9 17 17 SSE 17 28 29.72 1006 10 16 0.00 0.00
1:53 pm 13:53 Sunny 102 38.9 47 8.3 15 15 S 16 26 29.71 1006 10 16 0.00 0.00
2:53 pm 14:53 Sunny 105 40.6 42 5.6 12 12 S 22 35 29.69 1005 10 16 0.00 0.00
3:53 pm 15:53 Sunny 105 40.6 42 5.6 12 12 S 16 26 29.68 1005 10 16 0.00 0.00
4:53 pm 16:53 Sunny 105 40.6 42 5.6 12 12 SSE 18 30 29.66 1005 10 16 0.00 0.00
5:53 pm 17:53 Sunny 104 40 40 4.4 11 11 SSE 18 30 29.66 1004 10 16 0.00 0.00
6:53 pm 18:53 Sunny 102 38.9 39 3.9 11 11 S 21 33 29.65 1004 10 16 0.00 0.00
7:53 pm 19:53 Sunny 101 38.3 40 4.4 12 12 S 18 30 29.65 1004 10 16 0.00 0.00
8:53 pm 20:53 Sunny 97 36.1 41 5 14 14 SSE 16 26 29.66 1005 10 16 0.00 0.00
9:53 pm 21:53 Clear 94 34.4 41 5 16 16 SSE 17 28 29.68 1005 10 16 0.00 0.00
10:53 pm 22:53 Clear 91 32.8 44 6.7 20 20 SSE 18 30 29.70 1006 10 16 0.00 0.00
11:53 pm 23:53 Clear 89 31.7 48 8.9 24 24 SSE 16 26 29.71 1006 10 16 0.00 0.00

Powered by AerisWeather